[[[{"header":{"parameterUnit":"kt","parameterCategory":2,"dx":1,"dy":1,"la1":30.253999710083008,"la2":30.299108505249023,"lo1":-89.0895004272461,"lo2":-89.04439544677734,"nx":28,"ny":28,"refTime":"2022-10-16T21:00:00:Z","depth":"0","parameterNumber":2,"parameterNumberName":"U-component_of_CURRENTS"},"data":[0.5725,0.5702,0.5632,0.5507,0.5433,0.5238,0.5164,0.5033,0.505,0.5086,0.5275,0.5505,0.621,0.7024,0.7353,0.7315,0.7031,0.6757,0.6765,0.7286,0.7319,0.735,0.7096,0.7048,0.7048,0.5852,0.5845,0.584,0.5645,0.556,0.5648,0.5536,0.5493,0.5459,0.5415,0.532,0.5235,0.5382,0.5452,0.5969,0.6443,0.6946,0.7578,0.7593,0.7328,0.7489,0.7006,0.6975,0.7568,0.731,0.7307,0.7307,0.7307,0.7307,0.7307,0.7307,0.5378,0.5451,0.5395,0.5444,0.5455,0.5386,0.5392,0.538,0.5432,0.5485,0.5711,0.5918,0.6513,0.7289,0.7512,0.7804,0.7765,0.7799,0.7899,0.7556,0.7236,0.7514,0.7979,0.798,0.7982,0.7983,0.7984,0,0.5024,0.498,0.5114,0.5135,0.5202,0.5278,0.5342,0.5411,0.5472,0.5635,0.5789,0.5992,0.6612,0.7012,0.759,0.7906,0.788,0.8161,0.8034,0.7742,0.7069,0.6873,0.7332,0.8077,0.8079,0.8081,0.8082,0.8083,0.4431,0.4631,0.4729,0.4787,0.4857,0.5039,0.5114,0.52,0.5308,0.5583,0.5728,0.6159,0.64,0.7169,0.7567,0.8104,0.7919,0.8208,0.8042,0.7644,0.7594,0.716,0.7024,0.8108,0.8105,0.8102,0.81,0,0.4064,0.4096,0.4425,0.4557,0.4579,0.4794,0.4883,0.5066,0.5235,0.5522,0.5663,0.5975,0.6426,0.6774,0.7468,0.7586,0.7923,0.8142,0.773,0.7639,0.7458,0.7432,0.7766,0.7669,0.8425,0.8424,0.8423,0,0.3576,0.3852,0.3885,0.4084,0.4375,0.4414,0.473,0.4874,0.5096,0.5311,0.5541,0.5784,0.6248,0.6628,0.6906,0.7337,0.7603,0.7524,0.7485,0.7276,0.7214,0.7128,0.7081,0.7971,0.7967,0.7962,0.7959,0,0.3143,0.3413,0.3727,0.3818,0.4024,0.4182,0.4278,0.4522,0.4681,0.5088,0.5228,0.5745,0.5966,0.6453,0.6656,0.6523,0.7369,0.7206,0.7247,0.7216,0.72,0.7134,0.7751,0.7953,0.7952,0.795,0.7948,0,0.2802,0.2957,0.3336,0.3567,0.3649,0.3806,0.4134,0.4301,0.4607,0.4704,0.5017,0.5098,0.5623,0.5452,0.6195,0.5879,0.6133,0.6282,0.6305,0.6067,0.5664,0.5983,0.6603,0.6422,0.6266,0.6254,0.6243,0,0.242,0.2759,0.278,0.3129,0.3338,0.3341,0.3555,0.3743,0.386,0.4134,0.4351,0.4644,0.4554,0.4682,0.5041,0.5268,0.5662,0.521,0.5706,0.5721,0.5463,0.6077,0.5917,0.6409,0.6084,0.61,0.6112,0,0.2152,0.2337,0.239,0.2543,0.2685,0.2792,0.302,0.3281,0.3476,0.3596,0.3936,0.4258,0.4283,0.4404,0.4423,0.4754,0.5365,0.4622,0.4634,0.4833,0.6128,0.5871,0.5951,0.537,0.5392,0.5409,0.5986,0,0.1997,0.2125,0.2195,0.2394,0.2464,0.2607,0.2697,0.2797,0.2831,0.2938,0.3285,0.3389,0.3647,0.3689,0.3674,0.4246,0.4115,0.4028,0.3888,0.4286,0.4449,0.4551,0.3267,0.326,0.3255,0.3251,0,0,0.1755,0.1933,0.1887,0.2036,0.2137,0.208,0.2272,0.234,0.2448,0.2579,0.2459,0.2856,0.2905,0.3328,0.3461,0.3395,0.3516,0.3336,0.4003,0.4085,0.4163,0.4347,0.445,0.3241,0.3239,0.3238,0.3236,0,0.1751,0.173,0.1848,0.191,0.1993,0.2037,0.2061,0.2137,0.2203,0.2358,0.2403,0.2597,0.2663,0.2875,0.2965,0.3279,0.3274,0.3234,0.3541,0.394,0.403,0.411,0.4308,0.4404,0.3223,0.3224,0.3224,0,0.1655,0.1703,0.1732,0.1814,0.1854,0.1989,0.1893,0.1959,0.211,0.1996,0.2192,0.2239,0.2323,0.2536,0.2612,0.2501,0.305,0.274,0.2768,0.2895,0.3304,0.3403,0.3492,0.2369,0.2367,0.2365,0,0,0.1656,0.1712,0.177,0.1816,0.1846,0.188,0.1906,0.1925,0.1979,0.1999,0.203,0.2099,0.225,0.2281,0.2378,0.2505,0.2638,0.2642,0.2682,0.2716,0.2858,0.3273,0.3367,0.2356,0.2356,0.2356,0,0,0.1653,0.1728,0.173,0.1784,0.1838,0.1887,0.1919,0.1917,0.1973,0.1976,0.1967,0.1975,0.2164,0.2113,0.2004,0.235,0.2178,0.2198,0.2393,0.2441,0.2481,0.2643,0.1919,0,0,0,0,0,0.1686,0.1723,0.1725,0.1738,0.1811,0.1888,0.1897,0.1909,0.188,0.1915,0.1957,0.1896,0.2098,0.2,0.2004,0.2189,0.2247,0.2266,0.2285,0.2569,0.2621,0.2666,0,0,0,0,0,0,0.1692,0.1709,0.1724,0.1773,0.1789,0.1885,0.1848,0.1853,0.1878,0.1877,0.1896,0.1896,0.1895,0.1992,0.1998,0.2177,0.1917,0.2254,0.2271,0.2286,0.2587,0.263,0.2667,0,0,0,0,0,0.1696,0.171,0.1824,0.1772,0.1787,0.1815,0.1846,0.185,0.1869,0.1882,0.1883,0.1877,0.1896,0.19,0.1995,0.2179,0.1913,0.1915,0.2265,0.2278,0.229,0.2608,0,0,0,0,0,0,0.17,0.1712,0.1827,0.1832,0.1756,0.1811,0.182,0.1848,0.1873,0.1876,0.1862,0.1861,0.1897,0.19,0.1904,0.2187,0.1909,0.1912,0.1913,0.2275,0.2285,0.2294,0,0,0,0,0,0,0.1705,0.1716,0.1829,0.1808,0.181,0.1807,0.1815,0.1844,0.1872,0.1851,0.1851,0.1861,0.1882,0.19,0.1903,0.1948,0.1907,0.1909,0.191,0.1911,0.2283,0.2291,0,0,0,0,0,0,0.1709,0.1719,0.1807,0.1809,0.1811,0.1864,0.1831,0.1898,0.1874,0.1849,0.187,0.1868,0.1882,0.1885,0.1903,0.1947,0.1948,0.1907,0.1908,0.1909,0.191,0,0,0,0,0,0,0,0.1713,0.1647,0.18,0.1809,0.1811,0.1875,0.1877,0.1878,0.1874,0.1872,0.187,0.1869,0.1894,0.1897,0.1899,0.1946,0,0,0.1907,0.1908,0,0,0,0,0,0,0,0,0.1643,0.1646,0.18,0.1801,0.1802,0.1876,0.1877,0.1878,0.1873,0.1872,0.1871,0.187,0.1895,0.1897,0.1899,0,0,0,0,0,0,0,0,0,0,0,0,0,0,0,0.18,0.1801,0,0.1876,0.1877,0.1877,0.1873,0.1872,0.1871,0.187,0.1895,0.1897,0.1899,0,0,0,0,0,0,0,0,0,0,0,0,0,0,0,0,0,0,0,0,0,0,0,0,0,0,0,0,0,0,0,0,0,0,0,0,0,0,0,0,0,0,0,0,0,0,0,0,0,0,0,0,0,0,0,0,0,0,0,0,0,0,0,0,0,0,0,0,0]}],[{"header":{"parameterUnit":"kt","parameterCategory":2,"dx":1,"dy":1,"la1":30.253999710083008,"la2":30.299108505249023,"lo1":-89.0895004272461,"lo2":-89.04439544677734,"nx":28,"ny":28,"refTime":"2022-10-16T21:00:00:Z","depth":"0","parameterNumber":3,"parameterNumberName":"V-component_of_CURRENTS"},"data":[0.1385,0.1428,0.1477,0.1659,0.178,0.1981,0.213,0.238,0.2678,0.3185,0.3553,0.3868,0.3849,0.2,0.0565,0.0049,-0.0636,-0.0671,-0.0997,-0.0503,-0.0437,-0.0374,-0.0546,-0.1019,-0.1022,-0.1855,-0.1864,-0.1871,0.1408,0.1438,0.1556,0.1677,0.1822,0.1908,0.2171,0.2319,0.2582,0.2967,0.3228,0.3493,0.2979,0.2488,0.1634,0.0891,0.0579,0.0439,0.025,0.0092,0.1003,0.0883,0.0706,0.0707,0.0707,0.0707,0.0708,0.0708,0.14,0.1458,0.1496,0.1626,0.1764,0.1938,0.2083,0.2277,0.2534,0.2882,0.3043,0.333,0.3194,0.289,0.2442,0.1662,0.1725,0.1339,0.1152,0.1139,0.0811,0.176,0.1874,0.1874,0.1875,0.1875,0.1876,0,0.1325,0.1337,0.1438,0.1549,0.1672,0.1844,0.2027,0.2168,0.2401,0.2627,0.2912,0.3069,0.3085,0.2945,0.2685,0.245,0.1794,0.2092,0.1638,0.1129,0.0974,0.0639,0.1607,0.191,0.1911,0.1911,0.1912,0.1912,0.1108,0.1233,0.137,0.1442,0.1507,0.1705,0.1825,0.2006,0.216,0.2503,0.2635,0.2825,0.2954,0.2886,0.2608,0.2413,0.2016,0.2124,0.1912,0.1408,0.1081,0.0987,0.0767,0.1921,0.192,0.1919,0.1918,0,0.0958,0.1007,0.1224,0.1372,0.1425,0.1592,0.1774,0.1942,0.2112,0.2362,0.2443,0.2602,0.2676,0.2565,0.2513,0.2282,0.1974,0.2114,0.2017,0.1905,0.1303,0.1077,0.1162,0.0922,0.2035,0.2035,0.2034,0,0.0717,0.0904,0.095,0.1068,0.1321,0.1378,0.1651,0.1763,0.1949,0.2138,0.2177,0.2342,0.2256,0.2293,0.2114,0.2027,0.2143,0.1795,0.1693,0.1614,0.1589,0.1128,0.0877,0.1909,0.1908,0.1907,0.1906,0,0.0408,0.0625,0.0841,0.0901,0.1055,0.1199,0.1301,0.1468,0.1603,0.1821,0.1914,0.2066,0.2116,0.2089,0.1905,0.1781,0.1968,0.1743,0.1602,0.1587,0.1482,0.1444,0.1452,0.1904,0.1904,0.1903,0.1903,0,0.0168,0.0257,0.0538,0.0696,0.0752,0.0903,0.1137,0.129,0.1459,0.1497,0.1627,0.1565,0.1756,0.1515,0.163,0.1517,0.1422,0.1333,0.1333,0.1147,0.0829,0.0901,0.1307,0.0854,0.1164,0.1159,0.1154,0,-0.0151,0.0077,0.0064,0.034,0.0463,0.0422,0.0626,0.0732,0.0784,0.095,0.0968,0.1106,0.094,0.0969,0.1068,0.0968,0.1099,0.0939,0.0844,0.0843,0.0724,0.1139,0.1081,0.1229,0.109,0.1097,0.1102,0,-0.0418,-0.0365,-0.0332,-0.0237,-0.018,-0.013,0.0084,0.0239,0.0384,0.0416,0.0644,0.0763,0.0667,0.0703,0.0613,0.0708,0.0972,0.0505,0.05,0.0559,0.1149,0.1053,0.1085,0.0863,0.0873,0.088,0.1051,0,-0.0622,-0.0569,-0.0527,-0.0423,-0.0398,-0.0316,-0.0302,-0.0239,-0.0245,-0.0215,-0.0024,-0.007,0.0027,0.0048,-0.0026,0.0274,0.0151,0.0006,-0.0156,0.0148,0.0167,0.021,-0.0398,-0.0406,-0.0412,-0.0417,0,0,-0.0856,-0.0779,-0.092,-0.082,-0.0776,-0.0923,-0.0768,-0.0746,-0.0746,-0.0672,-0.0772,-0.0612,-0.0657,-0.0397,-0.0281,-0.0357,-0.0371,-0.0372,-0.0026,0.0019,0.0059,0.0098,0.0145,-0.0428,-0.0431,-0.0433,-0.0435,0,-0.091,-0.1019,-0.0942,-0.0945,-0.0976,-0.0995,-0.0982,-0.1019,-0.0991,-0.0885,-0.0947,-0.0879,-0.0856,-0.0777,-0.0745,-0.0468,-0.06,-0.0483,-0.0172,-0.0084,-0.0031,0.0015,0.0064,0.0111,-0.0451,-0.0449,-0.0449,0,-0.1033,-0.1081,-0.1084,-0.1137,-0.1169,-0.108,-0.1248,-0.1249,-0.1124,-0.1332,-0.1176,-0.1227,-0.1243,-0.1092,-0.1047,-0.1139,-0.0815,-0.096,-0.0928,-0.0869,-0.0789,-0.0728,-0.0673,-0.1375,-0.1377,-0.1379,0,0,-0.1062,-0.1071,-0.1144,-0.1153,-0.1165,-0.1237,-0.1258,-0.1289,-0.1315,-0.1322,-0.1353,-0.1355,-0.1298,-0.1282,-0.1276,-0.1179,-0.1211,-0.1062,-0.1018,-0.0982,-0.0904,-0.0813,-0.0755,-0.1386,-0.1386,-0.1387,0,0,-0.1075,-0.1152,-0.119,-0.1212,-0.124,-0.1316,-0.1315,-0.1363,-0.1369,-0.1368,-0.1458,-0.1469,-0.1358,-0.1439,-0.1529,-0.1281,-0.1474,-0.1459,-0.1195,-0.1144,-0.1101,-0.1,-0.1658,0,0,0,0,0,-0.1145,-0.1141,-0.1175,-0.1191,-0.1283,-0.1301,-0.1313,-0.1378,-0.1423,-0.1399,-0.1422,-0.1516,-0.1461,-0.1545,-0.156,-0.1385,-0.1486,-0.1468,-0.1452,-0.1093,-0.1037,-0.0989,0,0,0,0,0,0,-0.1152,-0.1169,-0.1176,-0.1253,-0.1276,-0.1303,-0.138,-0.1397,-0.1425,-0.1431,-0.1505,-0.1519,-0.1574,-0.1546,-0.1558,-0.1386,-0.1655,-0.1479,-0.1464,-0.145,-0.1074,-0.1028,-0.0988,0,0,0,0,0,-0.1158,-0.1172,-0.13,-0.1254,-0.1273,-0.1361,-0.138,-0.1395,-0.1409,-0.15,-0.1515,-0.1455,-0.1572,-0.1586,-0.1554,-0.1375,-0.1648,-0.1651,-0.1469,-0.1457,-0.1447,-0.1051,0,0,0,0,0,0,-0.1162,-0.1178,-0.1306,-0.1315,-0.1261,-0.1359,-0.1375,-0.1392,-0.1476,-0.1492,-0.1456,-0.146,-0.1571,-0.1582,-0.1592,-0.136,-0.1642,-0.1646,-0.1648,-0.146,-0.1451,-0.1443,0,0,0,0,0,0,-0.1172,-0.1184,-0.131,-0.1314,-0.1324,-0.1357,-0.1371,-0.1408,-0.1476,-0.1426,-0.1433,-0.1457,-0.1561,-0.1579,-0.1587,-0.1642,-0.1637,-0.1641,-0.1644,-0.1645,-0.1453,-0.1445,0,0,0,0,0,0,-0.1179,-0.119,-0.1312,-0.132,-0.1328,-0.143,-0.1391,-0.148,-0.1483,-0.142,-0.1486,-0.1487,-0.1557,-0.1566,-0.1583,-0.1634,-0.164,-0.1637,-0.164,-0.1642,-0.1643,0,0,0,0,0,0,0,-0.1184,-0.1091,-0.1259,-0.1324,-0.1331,-0.1401,-0.1402,-0.1404,-0.1484,-0.1485,-0.1486,-0.1487,-0.1616,-0.162,-0.1624,-0.1628,0,0,-0.1637,-0.1639,0,0,0,0,0,0,0,0,-0.1088,-0.109,-0.1259,-0.1261,-0.1264,-0.1401,-0.1402,-0.1404,-0.1484,-0.1485,-0.1486,-0.1486,-0.1617,-0.162,-0.1624,0,0,0,0,0,0,0,0,0,0,0,0,0,0,0,-0.1259,-0.1261,0,-0.1401,-0.1402,-0.1403,-0.1484,-0.1485,-0.1485,-0.1486,-0.1618,-0.1621,-0.1623,0,0,0,0,0,0,0,0,0,0,0,0,0,0,0,0,0,0,0,0,0,0,0,0,0,0,0,0,0,0,0,0,0,0,0,0,0,0,0,0,0,0,0,0,0,0,0,0,0,0,0,0,0,0,0,0,0,0,0,0,0,0,0,0,0,0,0,0,0]}]],[[{"header":{"parameterUnit":"kt","parameterCategory":2,"dx":1,"dy":1,"la1":30.253999710083008,"la2":30.299108505249023,"lo1":-89.0895004272461,"lo2":-89.04439544677734,"nx":28,"ny":28,"refTime":"2022-10-16T21:00:00:Z","depth":"2","parameterNumber":2,"parameterNumberName":"U-component_of_CURRENTS"},"data":[0.1064,0.1091,0.112,0.1181,0.125,0.1325,0.1388,0.1491,0.1622,0.1666,0.175,0.1966,0.2119,0.197,0.1965,0.192,0.1958,0.1814,0.2093,0.2253,0.2279,0.235,0.2268,0,0,0,0,0,0.1089,0.1128,0.1189,0.1277,0.1329,0.1415,0.1538,0.1601,0.1715,0.189,0.2014,0.1932,0.2036,0.2144,0.2086,0.2037,0.204,0.1943,0.2047,0.2079,0.2107,0.203,0.1797,0.1795,0.1793,0.1792,0,0,0.1131,0.1162,0.1222,0.1311,0.1398,0.148,0.1561,0.1678,0.1814,0.2002,0.2108,0.2236,0.2368,0.2333,0.2293,0.2247,0.236,0.2319,0.2335,0.2354,0.2285,0.2158,0.2122,0.2123,0.2124,0.2124,0.2125,0,0.1148,0.1187,0.1243,0.1337,0.1425,0.1536,0.1668,0.1743,0.1953,0.2085,0.2251,0.2363,0.2487,0.2529,0.252,0.249,0.2583,0.2511,0.2722,0.258,0.2457,0.24,0.2396,0.2495,0.2498,0.25,0.2502,0.2503,0.1153,0.1187,0.131,0.1358,0.1413,0.1561,0.1651,0.1843,0.1939,0.2211,0.2273,0.2476,0.2579,0.2674,0.2693,0.2712,0.278,0.2591,0.2572,0.264,0.2583,0.2569,0.2554,0.2536,0.2532,0.2528,0.2526,0,0.115,0.1196,0.1274,0.1394,0.1446,0.1542,0.1721,0.1833,0.2024,0.2208,0.23,0.2522,0.2651,0.274,0.2888,0.2836,0.2875,0.284,0.2692,0.2632,0.2591,0.2571,0.2724,0.2718,0.2714,0.271,0.2707,0,0.1153,0.1205,0.1283,0.1314,0.1443,0.1512,0.1687,0.1812,0.2005,0.2148,0.234,0.2473,0.2659,0.2753,0.2795,0.2802,0.2935,0.2772,0.2729,0.2667,0.2638,0.2762,0.2731,0.3018,0.3018,0.3018,0.3018,0,0.1114,0.1193,0.1263,0.1284,0.1384,0.1472,0.1556,0.1738,0.1854,0.2112,0.2214,0.2457,0.2575,0.2695,0.2738,0.2723,0.2883,0.2849,0.2708,0.2689,0.2614,0.2578,0.3017,0.3017,0.3017,0.3017,0.3017,0,0.1091,0.1122,0.1206,0.1286,0.131,0.1378,0.1543,0.165,0.1859,0.1956,0.2157,0.2243,0.2469,0.2425,0.2634,0.2577,0.2612,0.2626,0.2627,0.2413,0.2265,0.2194,0.2405,0.2532,0.2529,0.2526,0.2523,0,0.1027,0.1089,0.1098,0.1184,0.1214,0.1247,0.1363,0.1472,0.1574,0.1732,0.1882,0.2059,0.2069,0.2176,0.2301,0.2358,0.2464,0.2372,0.24,0.2399,0.2182,0.2414,0.2346,0.2367,0.2486,0.249,0.2493,0,0.0957,0.0985,0.0989,0.1018,0.1044,0.1067,0.1192,0.1301,0.1409,0.152,0.1689,0.1908,0.1958,0.2035,0.2091,0.2199,0.2384,0.2155,0.2155,0.2118,0.256,0.2377,0.2384,0.2412,0.2418,0.2423,0.2463,0,0.0924,0.0926,0.0941,0.0962,0.098,0.1009,0.1046,0.1113,0.1163,0.1219,0.1435,0.1513,0.1673,0.1744,0.1757,0.2007,0.1939,0.1913,0.1801,0.2007,0.1989,0.2014,0.1674,0.167,0.1667,0.1665,0,0,0.085,0.0855,0.0811,0.0837,0.0853,0.0824,0.0872,0.0907,0.0953,0.1027,0.1009,0.1261,0.1307,0.1532,0.1635,0.1637,0.1649,0.1625,0.1906,0.1933,0.1958,0.1953,0.198,0.1659,0.1658,0.1657,0.1656,0,0.083,0.0782,0.08,0.0797,0.0797,0.079,0.0804,0.0807,0.0843,0.0939,0.0968,0.1097,0.12,0.13,0.136,0.1575,0.1524,0.1628,0.1771,0.1876,0.1907,0.1934,0.1936,0.1962,0.1649,0.1649,0.165,0,0.0784,0.0757,0.0751,0.0721,0.0713,0.0741,0.0689,0.0705,0.0764,0.0718,0.0826,0.0882,0.0951,0.1104,0.117,0.1115,0.1388,0.1305,0.1323,0.1326,0.1427,0.1465,0.1498,0.1063,0.1061,0.1059,0,0,0.0768,0.0754,0.0721,0.0713,0.0711,0.0688,0.0687,0.0682,0.0699,0.0709,0.0736,0.0803,0.09,0.0946,0.1006,0.1121,0.1104,0.1234,0.1262,0.1285,0.13,0.1407,0.1444,0.1052,0.1052,0.1052,0,0,0.0765,0.0721,0.0704,0.0683,0.0679,0.0648,0.0659,0.0646,0.0675,0.0692,0.0686,0.0696,0.0834,0.0827,0.0733,0.1011,0.0898,0.0916,0.1011,0.1045,0.1072,0.1075,0.0678,0,0,0,0,0,0.0732,0.0725,0.071,0.0702,0.0653,0.065,0.0646,0.063,0.0623,0.0635,0.0672,0.064,0.081,0.0724,0.0729,0.0867,0.096,0.0977,0.0992,0.1141,0.1178,0.1208,0,0,0,0,0,0,0.0729,0.0718,0.0711,0.0676,0.0666,0.0649,0.062,0.0615,0.0622,0.0621,0.0635,0.064,0.0634,0.0719,0.0724,0.0858,0.0676,0.0967,0.098,0.0993,0.1154,0.1183,0.1209,0,0,0,0,0,0.0726,0.0718,0.064,0.0676,0.0668,0.0646,0.062,0.0616,0.0622,0.0622,0.0625,0.0615,0.0633,0.0641,0.0722,0.0858,0.0672,0.0675,0.0976,0.0987,0.0996,0.1168,0,0,0,0,0,0,0.0725,0.0709,0.0638,0.0636,0.0682,0.0648,0.064,0.0617,0.0623,0.0625,0.0602,0.0601,0.0633,0.0639,0.0644,0.0863,0.0669,0.0671,0.0673,0.0984,0.0992,0.1,0,0,0,0,0,0,0.0715,0.0707,0.0637,0.0645,0.0643,0.065,0.0643,0.0665,0.0626,0.0602,0.0601,0.0602,0.0652,0.0637,0.0641,0.0674,0.0667,0.0669,0.067,0.0671,0.0991,0.0998,0,0,0,0,0,0,0.0712,0.0705,0.0645,0.0643,0.0642,0.061,0.0673,0.0637,0.0587,0.0604,0.0588,0.0588,0.0653,0.0655,0.0639,0.067,0.0673,0.0667,0.0668,0.0669,0.067,0,0,0,0,0,0,0,0.0709,0.0752,0.0658,0.0642,0.0641,0.0614,0.0613,0.0612,0.0587,0.0587,0.0588,0.0588,0.0655,0.0657,0.0659,0.0667,0,0,0.0666,0.0668,0,0,0,0,0,0,0,0,0.0755,0.0753,0.0658,0.0658,0.0657,0.0614,0.0613,0.0612,0.0587,0.0587,0.0588,0.0588,0.0655,0.0657,0.0659,0,0,0,0,0,0,0,0,0,0,0,0,0,0,0,0.0658,0.0658,0,0.0614,0.0613,0.0612,0.0587,0.0587,0.0588,0.0588,0.0656,0.0657,0.0659,0,0,0,0,0,0,0,0,0,0,0,0,0,0,0,0,0,0,0,0,0,0,0,0,0,0,0,0,0,0,0,0,0,0,0,0,0,0,0,0,0,0,0,0,0,0,0,0,0,0,0,0,0,0,0,0,0,0,0,0,0,0,0,0,0,0,0,0,0]}],[{"header":{"parameterUnit":"kt","parameterCategory":2,"dx":1,"dy":1,"la1":30.253999710083008,"la2":30.299108505249023,"lo1":-89.0895004272461,"lo2":-89.04439544677734,"nx":28,"ny":28,"refTime":"2022-10-16T21:00:00:Z","depth":"2","parameterNumber":3,"parameterNumberName":"V-component_of_CURRENTS"},"data":[0.0079,0.0227,0.0299,0.0555,0.0701,0.0903,0.0982,0.1016,0.1032,0.0933,0.0873,0.064,0.0192,-0.0068,-0.0506,-0.0714,-0.0712,-0.0751,-0.0811,-0.0597,-0.0581,-0.087,-0.0769,0,0,0,0,0,0.0029,0.0129,0.0275,0.0463,0.0619,0.0697,0.0841,0.0912,0.0951,0.0916,0.0815,0.0458,0.0046,-0.0256,-0.0661,-0.0995,-0.0955,-0.105,-0.0918,-0.0908,-0.0898,-0.0838,-0.1001,-0.1001,-0.1001,-0.1,0,0,-0.0052,0.0031,0.0153,0.0321,0.0473,0.061,0.0735,0.082,0.089,0.0891,0.0747,0.0589,0.0239,-0.0307,-0.0631,-0.088,-0.0904,-0.0987,-0.0977,-0.0966,-0.0917,-0.0881,-0.1097,-0.1097,-0.1098,-0.1098,-0.1098,0,-0.0104,-0.0064,0.0034,0.0204,0.0344,0.0501,0.0667,0.0726,0.0829,0.0831,0.0775,0.0642,0.0258,-0.0086,-0.051,-0.0718,-0.0748,-0.0852,-0.0781,-0.0676,-0.0632,-0.0654,-0.0634,-0.081,-0.0809,-0.0808,-0.0807,-0.0806,-0.0167,-0.0117,0.0032,0.012,0.0196,0.0376,0.0503,0.0629,0.0707,0.0737,0.0745,0.0594,0.0433,-0.0015,-0.0288,-0.0633,-0.0613,-0.0808,-0.0776,-0.0661,-0.069,-0.0668,-0.0649,-0.0793,-0.0795,-0.0796,-0.0797,0,-0.0191,-0.0156,-0.0044,0.009,0.0149,0.0269,0.0467,0.0567,0.0632,0.0701,0.0721,0.0641,0.0428,0.0209,-0.0083,-0.0252,-0.0501,-0.0599,-0.0515,-0.0555,-0.0638,-0.0622,-0.0839,-0.0844,-0.0847,-0.085,-0.0852,0,-0.0226,-0.0155,-0.0065,-0.0013,0.0131,0.0208,0.0364,0.0437,0.0522,0.059,0.0563,0.0556,0.0373,0.0212,0.0038,-0.024,-0.0226,-0.0419,-0.047,-0.0413,-0.0413,-0.0325,-0.0316,-0.0393,-0.0391,-0.039,-0.0389,0,-0.0283,-0.0172,-0.0094,-0.0057,0.0068,0.0146,0.0238,0.0327,0.0408,0.0457,0.0487,0.0417,0.0394,0.0222,0.0049,0.0066,-0.0211,-0.0216,-0.0399,-0.0405,-0.0435,-0.044,-0.0387,-0.0386,-0.0386,-0.0385,-0.0385,0,-0.0311,-0.0256,-0.0158,-0.0042,-0.0004,0.007,0.0198,0.0276,0.0332,0.0372,0.0378,0.0366,0.0318,0.0285,0.0087,0.015,0.0031,-0.0068,-0.0079,-0.0171,-0.02,-0.0311,-0.0391,-0.0202,-0.02,-0.0198,-0.0196,0,-0.0374,-0.0283,-0.0261,-0.0147,-0.0081,-0.0028,0.0049,0.0125,0.0176,0.0239,0.022,0.0275,0.0248,0.0285,0.021,0.0118,0.0041,0.0136,-0.0099,-0.0106,-0.0148,-0.0216,-0.0176,-0.0353,-0.0169,-0.0172,-0.0174,0,-0.043,-0.0361,-0.0347,-0.0299,-0.0218,-0.0148,-0.0071,0.0016,0.008,0.0131,0.0188,0.0218,0.0221,0.023,0.0228,0.0164,0.0081,0.0131,0.0126,0.0066,-0.0109,-0.0172,-0.0196,0.005,0.0048,0.0046,-0.0152,0,-0.0462,-0.0427,-0.0388,-0.033,-0.0272,-0.0195,-0.0136,-0.0065,-0.0009,0.0031,0.0091,0.0108,0.0153,0.0157,0.0168,0.015,0.0119,0.0101,0.0096,0.0081,-0.0005,-0.0021,0.0158,0.0157,0.0156,0.0155,0,0,-0.0528,-0.0492,-0.047,-0.0416,-0.0367,-0.0315,-0.0245,-0.0191,-0.0081,-0.0043,-0.0025,0.0045,0.0079,0.0112,0.0127,0.0133,0.0075,0.0177,0.0095,0.0088,0.0082,0.0,-0.0014,0.0153,0.0153,0.0153,0.0152,0,-0.0544,-0.0536,-0.0503,-0.0455,-0.0376,-0.0333,-0.0304,-0.0205,-0.015,-0.0069,-0.0054,-0.0019,0.0068,0.0082,0.0097,0.0121,0.0095,0.0137,0.0174,0.009,0.0085,0.008,-0.0001,-0.0013,0.015,0.015,0.015,0,-0.0588,-0.0564,-0.0554,-0.0493,-0.0436,-0.0374,-0.0347,-0.0254,-0.0197,-0.0168,-0.0063,-0.0042,-0.0018,0.0042,0.0074,0.0074,0.009,0.0135,0.0138,0.0138,0.0049,0.0044,0.004,0.01,0.01,0.0101,0,0,-0.0598,-0.0581,-0.0527,-0.0492,-0.046,-0.0385,-0.0337,-0.0282,-0.0211,-0.017,-0.0106,-0.0062,-0.0029,0.0016,0.0048,0.0107,0.0051,0.0133,0.0135,0.0138,0.0139,0.0052,0.0047,0.0102,0.0102,0.0102,0,0,-0.0585,-0.0548,-0.0549,-0.051,-0.0446,-0.0357,-0.0302,-0.0262,-0.0184,-0.0165,-0.0114,-0.0094,-0.0024,-0.001,-0.0005,0.007,0.0051,0.0052,0.0094,0.0098,0.01,0.0097,0.0032,0,0,0,0,0,-0.0589,-0.0564,-0.0568,-0.0557,-0.0469,-0.038,-0.036,-0.0279,-0.0255,-0.0207,-0.0157,-0.0121,-0.0008,-0.0002,0.0015,0.006,0.0113,0.0111,0.0109,0.0174,0.0177,0.0179,0,0,0,0,0,0,-0.0584,-0.0573,-0.0567,-0.0491,-0.0469,-0.0381,-0.0357,-0.0334,-0.0256,-0.0244,-0.0136,-0.012,-0.0084,-0.0007,0.0008,0.005,0.0027,0.0112,0.0111,0.0109,0.0175,0.0178,0.018,0,0,0,0,0,-0.058,-0.0571,-0.0458,-0.0488,-0.0469,-0.0365,-0.0355,-0.0336,-0.0259,-0.0194,-0.0173,-0.0195,-0.0086,-0.0068,0.0002,0.0043,0.0018,0.0023,0.0111,0.011,0.0109,0.0176,0,0,0,0,0,0,-0.0576,-0.054,-0.0451,-0.0441,-0.0479,-0.0364,-0.0346,-0.0338,-0.0211,-0.0191,-0.0256,-0.0249,-0.0088,-0.0074,-0.006,0.0038,0.001,0.0015,0.0018,0.011,0.0109,0.0108,0,0,0,0,0,0,-0.0545,-0.0533,-0.0446,-0.044,-0.0428,-0.0364,-0.0349,-0.03,-0.0211,-0.0279,-0.0269,-0.0254,-0.011,-0.0078,-0.0067,0.0006,0.0004,0.0009,0.0012,0.0015,0.0109,0.0108,0,0,0,0,0,0,-0.0537,-0.0527,-0.0441,-0.0432,-0.0422,-0.0298,-0.0318,-0.0231,-0.0209,-0.0285,-0.0205,-0.0203,-0.0116,-0.0103,-0.0072,-0.0004,0.0003,0.0004,0.0007,0.001,0.0011,0,0,0,0,0,0,0,-0.0532,-0.063,-0.0515,-0.0426,-0.0417,-0.0347,-0.0344,-0.0341,-0.0208,-0.0207,-0.0205,-0.0203,-0.0025,-0.002,-0.0014,-0.0013,0,0,0.0003,0.0006,0,0,0,0,0,0,0,0,-0.0631,-0.063,-0.0515,-0.0513,-0.0511,-0.0347,-0.0344,-0.0342,-0.0208,-0.0207,-0.0205,-0.0204,-0.0024,-0.0019,-0.0015,0,0,0,0,0,0,0,0,0,0,0,0,0,0,0,-0.0515,-0.0513,0,-0.0346,-0.0344,-0.0342,-0.0208,-0.0207,-0.0206,-0.0205,-0.0022,-0.0019,-0.0015,0,0,0,0,0,0,0,0,0,0,0,0,0,0,0,0,0,0,0,0,0,0,0,0,0,0,0,0,0,0,0,0,0,0,0,0,0,0,0,0,0,0,0,0,0,0,0,0,0,0,0,0,0,0,0,0,0,0,0,0,0,0,0,0,0,0,0,0,0]}]],[[{"header":{"parameterUnit":"kt","parameterCategory":2,"dx":1,"dy":1,"la1":30.253999710083008,"la2":30.299108505249023,"lo1":-89.0895004272461,"lo2":-89.04439544677734,"nx":28,"ny":28,"refTime":"2022-10-16T21:00:00:Z","depth":"4","parameterNumber":2,"parameterNumberName":"U-component_of_CURRENTS"},"data":[0.0236,0.0277,0.0311,0.0392,0.0449,0.0533,0.0603,0.0679,0.074,0.0859,0.0884,0.0978,0.1013,0.1055,0.1072,0.1078,0.0946,0.1139,0.1138,0.0912,0.0901,0.0891,0.0887,0,0,0,0,0,0.0246,0.0273,0.0324,0.0406,0.0479,0.0531,0.0639,0.0692,0.0813,0.0894,0.0954,0.1012,0.1067,0.1084,0.1087,0.1094,0.0995,0.1094,0.0897,0.0905,0.0893,0.0893,0,0,0,0,0,0,0.0262,0.0284,0.0339,0.041,0.0485,0.056,0.0613,0.0719,0.0797,0.0948,0.0984,0.1054,0.1101,0.1107,0.1089,0.108,0.1026,0.0956,0.0941,0.0929,0.0939,0.0993,0.1109,0,0,0,0,0,0.028,0.0308,0.0348,0.0424,0.0492,0.0562,0.0662,0.0709,0.0831,0.0889,0.0998,0.1035,0.1084,0.1057,0.1065,0.0995,0.0871,0.0896,0.0887,0.0778,0.0809,0.0785,0.0774,0.0846,0.0844,0.0843,0.0843,0,0.0301,0.0318,0.0401,0.0437,0.048,0.0565,0.0623,0.0718,0.0775,0.0899,0.0929,0.1,0.1016,0.1016,0.0957,0.0909,0.0873,0.0866,0.0751,0.0789,0.0769,0.0761,0.0754,0.0833,0.0834,0.0834,0.0835,0,0.0308,0.0342,0.0387,0.0463,0.0497,0.0549,0.0657,0.0703,0.0778,0.0852,0.0879,0.0913,0.0937,0.0892,0.0832,0.0787,0.0752,0.0756,0.0692,0.0671,0.0738,0.0735,0.0816,0.082,0.0823,0.0826,0.0828,0,0.0324,0.0355,0.0415,0.0438,0.0499,0.0551,0.0623,0.0668,0.0733,0.0788,0.0797,0.083,0.077,0.0766,0.0703,0.0705,0.0666,0.0647,0.0637,0.0515,0.0512,0.0493,0.0488,0.0534,0.0534,0.0533,0.0533,0,0.0318,0.0372,0.0408,0.0429,0.0491,0.053,0.0576,0.0626,0.0664,0.0717,0.075,0.0737,0.075,0.0698,0.0661,0.0623,0.0625,0.0551,0.0606,0.0612,0.0489,0.0484,0.0532,0.0532,0.0532,0.0532,0.0532,0,0.0327,0.0353,0.0394,0.0453,0.0472,0.0505,0.057,0.0599,0.0635,0.0657,0.0671,0.0661,0.0657,0.0619,0.0583,0.0578,0.055,0.0513,0.0513,0.0579,0.0542,0.0475,0.051,0.051,0.0509,0.0509,0.0508,0,0.0318,0.0354,0.0374,0.042,0.0447,0.048,0.0508,0.0536,0.056,0.059,0.0567,0.0579,0.0546,0.0556,0.0535,0.0491,0.0494,0.0477,0.0448,0.0448,0.0536,0.0587,0.0447,0.0502,0.0503,0.0503,0.0504,0,0.0307,0.0348,0.0356,0.0383,0.0423,0.0442,0.047,0.0499,0.0528,0.0533,0.0559,0.0522,0.0526,0.0506,0.0475,0.0461,0.0485,0.044,0.0438,0.0479,0.0482,0.0569,0.0581,0.0446,0.0446,0.0446,0.05,0,0.0318,0.0339,0.0351,0.0381,0.0402,0.0426,0.0444,0.0468,0.0486,0.0492,0.0495,0.0465,0.0456,0.0434,0.0416,0.0412,0.0416,0.0375,0.037,0.0384,0.0405,0.0409,0.0351,0.035,0.0349,0.0349,0,0,0.031,0.0322,0.0335,0.0355,0.0373,0.0391,0.0413,0.0425,0.0438,0.0449,0.0451,0.0422,0.0396,0.0377,0.0384,0.0359,0.0362,0.0377,0.0371,0.0374,0.0376,0.0397,0.0402,0.0347,0.0347,0.0346,0.0346,0,0.0305,0.032,0.0329,0.0347,0.0371,0.0379,0.039,0.0409,0.0425,0.0435,0.0415,0.0407,0.0384,0.0364,0.0346,0.035,0.034,0.0336,0.0384,0.0364,0.0368,0.0371,0.0393,0.0398,0.0344,0.0344,0.0344,0,0.0304,0.0309,0.0311,0.0326,0.0342,0.0359,0.0361,0.0385,0.0398,0.0377,0.04,0.0379,0.0344,0.0337,0.0332,0.0328,0.0328,0.0315,0.0318,0.0333,0.0312,0.0317,0.032,0.0276,0.0276,0.0276,0,0,0.0304,0.031,0.0317,0.0324,0.0336,0.0349,0.036,0.0373,0.0378,0.0388,0.0384,0.0369,0.0346,0.0345,0.0322,0.0315,0.0309,0.031,0.0313,0.0316,0.0333,0.0313,0.0316,0.0276,0.0276,0.0276,0,0,0.0301,0.0304,0.0311,0.0318,0.0331,0.0336,0.0355,0.0363,0.0377,0.0386,0.0368,0.0365,0.036,0.034,0.0348,0.0323,0.0305,0.0304,0.0351,0.0354,0.0357,0.0386,0.033,0,0,0,0,0,0.0293,0.0299,0.0305,0.0306,0.0318,0.0329,0.0332,0.0353,0.0364,0.0383,0.0379,0.0367,0.034,0.0346,0.034,0.0345,0.0281,0.028,0.0279,0.0337,0.0341,0.0344,0,0,0,0,0,0,0.0294,0.0294,0.0304,0.0306,0.0309,0.0328,0.0333,0.0339,0.0363,0.0368,0.0368,0.0366,0.0352,0.0348,0.0343,0.0348,0.0332,0.028,0.028,0.0279,0.0338,0.0341,0.0344,0,0,0,0,0,0.0294,0.0295,0.031,0.0307,0.0309,0.0332,0.0334,0.0339,0.0369,0.0346,0.0347,0.0386,0.0352,0.0348,0.0344,0.0351,0.0335,0.0333,0.028,0.0279,0.0279,0.034,0,0,0,0,0,0,0.0294,0.0304,0.0311,0.0312,0.0314,0.0333,0.0337,0.0339,0.0345,0.0347,0.036,0.0363,0.0351,0.0348,0.0345,0.0353,0.0338,0.0336,0.0335,0.028,0.0279,0.0279,0,0,0,0,0,0,0.0303,0.0305,0.0312,0.032,0.0323,0.0334,0.0337,0.0314,0.0344,0.0359,0.0362,0.0361,0.0342,0.0348,0.0346,0.0311,0.034,0.0338,0.0337,0.0336,0.0279,0.0279,0,0,0,0,0,0,0.0304,0.0306,0.032,0.0322,0.0325,0.0345,0.0313,0.0318,0.0372,0.0358,0.0375,0.0376,0.034,0.0339,0.0346,0.0312,0.0311,0.034,0.0339,0.0338,0.0337,0,0,0,0,0,0,0,0.0305,0.0291,0.0299,0.0324,0.0326,0.0325,0.0325,0.0326,0.0373,0.0374,0.0375,0.0376,0.035,0.0348,0.0346,0.0313,0,0,0.034,0.0339,0,0,0,0,0,0,0,0,0.0291,0.0291,0.0299,0.0299,0.0299,0.0325,0.0325,0.0326,0.0373,0.0374,0.0374,0.0375,0.035,0.0348,0.0346,0,0,0,0,0,0,0,0,0,0,0,0,0,0,0,0.0299,0.0299,0,0.0325,0.0325,0.0326,0.0373,0.0374,0.0374,0.0375,0.0349,0.0348,0.0347,0,0,0,0,0,0,0,0,0,0,0,0,0,0,0,0,0,0,0,0,0,0,0,0,0,0,0,0,0,0,0,0,0,0,0,0,0,0,0,0,0,0,0,0,0,0,0,0,0,0,0,0,0,0,0,0,0,0,0,0,0,0,0,0,0,0,0,0,0]}],[{"header":{"parameterUnit":"kt","parameterCategory":2,"dx":1,"dy":1,"la1":30.253999710083008,"la2":30.299108505249023,"lo1":-89.0895004272461,"lo2":-89.04439544677734,"nx":28,"ny":28,"refTime":"2022-10-16T21:00:00:Z","depth":"4","parameterNumber":3,"parameterNumberName":"V-component_of_CURRENTS"},"data":[-0.0191,-0.0181,-0.0165,-0.014,-0.0123,-0.0132,-0.0149,-0.0184,-0.0182,-0.0238,-0.0316,-0.0388,-0.055,-0.0503,-0.0715,-0.0757,-0.0805,-0.105,-0.1051,-0.115,-0.1155,-0.116,-0.1125,0,0,0,0,0,-0.0189,-0.018,-0.0172,-0.0166,-0.017,-0.0175,-0.0217,-0.0245,-0.0298,-0.0289,-0.0335,-0.0421,-0.0573,-0.0675,-0.0739,-0.0875,-0.1018,-0.0955,-0.1034,-0.1153,-0.1159,-0.1123,0,0,0,0,0,0,-0.019,-0.0187,-0.0189,-0.019,-0.0205,-0.0212,-0.0236,-0.0265,-0.03,-0.039,-0.0397,-0.0539,-0.0638,-0.0778,-0.0876,-0.096,-0.0975,-0.0977,-0.0992,-0.0999,-0.0944,-0.0868,-0.0814,0,0,0,0,0,-0.0201,-0.0207,-0.0214,-0.0216,-0.0238,-0.0261,-0.0305,-0.0313,-0.0402,-0.0469,-0.051,-0.0607,-0.0709,-0.0847,-0.0945,-0.1035,-0.1187,-0.1184,-0.1188,-0.1187,-0.115,-0.1136,-0.1132,-0.118,-0.1181,-0.1181,-0.1181,0,-0.0217,-0.022,-0.0245,-0.0252,-0.0274,-0.0313,-0.0345,-0.043,-0.0468,-0.0572,-0.0593,-0.0712,-0.0803,-0.0903,-0.1049,-0.1168,-0.1175,-0.1199,-0.1198,-0.1159,-0.1144,-0.1139,-0.1134,-0.1186,-0.1185,-0.1185,-0.1185,0,-0.0227,-0.0248,-0.0265,-0.0311,-0.0326,-0.035,-0.0421,-0.0466,-0.0552,-0.0614,-0.0651,-0.0792,-0.0889,-0.1007,-0.1122,-0.1153,-0.1218,-0.122,-0.1227,-0.1215,-0.1146,-0.1139,-0.1193,-0.1192,-0.119,-0.1189,-0.1188,0,-0.0252,-0.0271,-0.0303,-0.0312,-0.0341,-0.04,-0.0455,-0.052,-0.0612,-0.0659,-0.0786,-0.0839,-0.0982,-0.1057,-0.1123,-0.1174,-0.1215,-0.1192,-0.1182,-0.1206,-0.1199,-0.1194,-0.1184,-0.1273,-0.1273,-0.1273,-0.1273,0,-0.0254,-0.0301,-0.0316,-0.0333,-0.0391,-0.0425,-0.0469,-0.0567,-0.0614,-0.0737,-0.0778,-0.0909,-0.0965,-0.1045,-0.1121,-0.1116,-0.1211,-0.1202,-0.1173,-0.1167,-0.1189,-0.118,-0.1272,-0.1272,-0.1272,-0.1272,-0.1272,0,-0.0278,-0.0291,-0.0322,-0.0366,-0.0382,-0.042,-0.0499,-0.0557,-0.0666,-0.072,-0.0819,-0.0884,-0.0986,-0.0993,-0.1104,-0.108,-0.1111,-0.1135,-0.1136,-0.107,-0.1028,-0.103,-0.1119,-0.1118,-0.1117,-0.1116,-0.1115,0,-0.0256,-0.0287,-0.0314,-0.036,-0.0379,-0.0432,-0.0485,-0.0555,-0.0622,-0.07,-0.0783,-0.0866,-0.0901,-0.0945,-0.0997,-0.1046,-0.1082,-0.1048,-0.1072,-0.1072,-0.1,-0.107,-0.1073,-0.11,-0.1102,-0.1103,-0.1104,0,-0.0236,-0.0276,-0.0284,-0.03,-0.0361,-0.0389,-0.0457,-0.0526,-0.0572,-0.0661,-0.0729,-0.084,-0.0881,-0.0914,-0.0953,-0.099,-0.1056,-0.0983,-0.0984,-0.0977,-0.1119,-0.1058,-0.1061,-0.1063,-0.1065,-0.1067,-0.1094,0,-0.0229,-0.0249,-0.0267,-0.0306,-0.0342,-0.038,-0.0431,-0.0484,-0.0531,-0.058,-0.0682,-0.0745,-0.082,-0.085,-0.0866,-0.0949,-0.0931,-0.0925,-0.0883,-0.0944,-0.0946,-0.0954,-0.0842,-0.0841,-0.0841,-0.084,0,0,-0.0199,-0.0217,-0.024,-0.0268,-0.0295,-0.0339,-0.0372,-0.0421,-0.05,-0.0536,-0.0548,-0.0681,-0.0715,-0.0797,-0.0835,-0.0844,-0.085,-0.0826,-0.0914,-0.0923,-0.093,-0.0935,-0.0944,-0.0839,-0.0838,-0.0838,-0.0838,0,-0.019,-0.0203,-0.0221,-0.0252,-0.0303,-0.0332,-0.0347,-0.041,-0.0453,-0.0518,-0.0556,-0.0622,-0.0682,-0.0729,-0.0754,-0.0826,-0.0812,-0.0842,-0.0869,-0.0906,-0.0915,-0.0924,-0.093,-0.0939,-0.0836,-0.0836,-0.0836,0,-0.0172,-0.0187,-0.0197,-0.0236,-0.0274,-0.031,-0.0328,-0.038,-0.0421,-0.044,-0.0518,-0.0561,-0.0599,-0.0665,-0.0693,-0.0669,-0.0763,-0.0736,-0.0741,-0.0741,-0.0777,-0.0788,-0.0798,-0.0668,-0.0667,-0.0666,0,0,-0.0165,-0.0179,-0.0213,-0.0235,-0.0254,-0.0305,-0.0336,-0.0369,-0.0417,-0.0446,-0.0485,-0.0529,-0.0578,-0.0598,-0.0641,-0.0682,-0.0682,-0.0715,-0.0723,-0.0729,-0.0734,-0.0771,-0.0782,-0.0664,-0.0664,-0.0664,0,0,-0.0169,-0.0194,-0.0204,-0.0223,-0.0267,-0.0321,-0.0355,-0.0381,-0.044,-0.0451,-0.0476,-0.0487,-0.0556,-0.0557,-0.0527,-0.063,-0.0598,-0.0604,-0.0624,-0.0634,-0.0642,-0.0639,-0.0517,0,0,0,0,0,-0.0174,-0.0184,-0.0192,-0.0199,-0.0257,-0.0308,-0.0321,-0.0373,-0.0387,-0.0417,-0.0459,-0.0454,-0.0558,-0.0531,-0.0537,-0.0576,-0.0636,-0.0641,-0.0645,-0.0683,-0.0693,-0.0702,0,0,0,0,0,0,-0.0177,-0.0183,-0.0193,-0.0238,-0.0252,-0.0307,-0.0323,-0.0338,-0.0386,-0.0393,-0.0448,-0.0454,-0.047,-0.0527,-0.0533,-0.057,-0.0515,-0.0638,-0.0642,-0.0646,-0.0686,-0.0695,-0.0702,0,0,0,0,0,-0.0179,-0.0185,-0.0257,-0.024,-0.0252,-0.032,-0.0323,-0.0336,-0.0384,-0.0414,-0.0424,-0.0423,-0.0469,-0.0477,-0.0531,-0.0568,-0.0511,-0.0513,-0.064,-0.0644,-0.0647,-0.069,0,0,0,0,0,0,-0.0181,-0.0209,-0.0262,-0.0269,-0.0241,-0.032,-0.0331,-0.0334,-0.0403,-0.0414,-0.0387,-0.0391,-0.0468,-0.0474,-0.048,-0.0568,-0.0508,-0.051,-0.0511,-0.0643,-0.0646,-0.0648,0,0,0,0,0,0,-0.0206,-0.0214,-0.0265,-0.0264,-0.0271,-0.032,-0.033,-0.0349,-0.0402,-0.0373,-0.0379,-0.0387,-0.0447,-0.0473,-0.0477,-0.0507,-0.0505,-0.0507,-0.0509,-0.051,-0.0645,-0.0647,0,0,0,0,0,0,-0.0211,-0.0218,-0.0262,-0.0268,-0.0275,-0.036,-0.0338,-0.0389,-0.042,-0.0369,-0.0421,-0.0422,-0.0443,-0.045,-0.0475,-0.0503,-0.0506,-0.0505,-0.0507,-0.0508,-0.0508,0,0,0,0,0,0,0,-0.0215,-0.0149,-0.0216,-0.0272,-0.0278,-0.0333,-0.0335,-0.0338,-0.042,-0.042,-0.0421,-0.0422,-0.0493,-0.0496,-0.0498,-0.05,0,0,-0.0505,-0.0506,0,0,0,0,0,0,0,0,-0.0148,-0.0149,-0.0216,-0.0217,-0.0219,-0.0333,-0.0335,-0.0337,-0.042,-0.042,-0.0421,-0.0421,-0.0494,-0.0496,-0.0498,0,0,0,0,0,0,0,0,0,0,0,0,0,0,0,-0.0216,-0.0217,0,-0.0334,-0.0335,-0.0337,-0.042,-0.042,-0.0421,-0.0421,-0.0495,-0.0496,-0.0498,0,0,0,0,0,0,0,0,0,0,0,0,0,0,0,0,0,0,0,0,0,0,0,0,0,0,0,0,0,0,0,0,0,0,0,0,0,0,0,0,0,0,0,0,0,0,0,0,0,0,0,0,0,0,0,0,0,0,0,0,0,0,0,0,0,0,0,0,0]}]]]